CGMPW CYUL-CYGP

Flight info

Callsign CGMPW
Flight time 1h 10m
Altitude 45000
Route ANTEG DCT OBRON DCT MOBUB DCT EBMOS DCT FLEUR DCT VODIX DCT OMPOG
Aircraft PC24/L-SBDGIRWY/LB2

Departure

Time 2026-05-07 00:28
Airport Montreal / Pierre Elliott Trudeau International Airport (CYUL)

Arrival

Time 2026-05-07 01:38
Airport Michel-Pouliot Gaspé Airport (CYGP)
Time Latitude Longitude Altitude Speed Heading
2026-05-07 00:17 45.46730 -73.73471 113 ft 0 kts 133°
2026-05-07 00:21 45.46720 -73.73465 113 ft 4 kts 179°
2026-05-07 00:22 45.46650 -73.73544 113 ft 16 kts 205°
2026-05-07 00:22 45.46573 -73.73497 111 ft 14 kts 70°
2026-05-07 00:22 45.46656 -73.73378 109 ft 18 kts 43°
2026-05-07 00:22 45.46752 -73.73253 109 ft 20 kts 43°
2026-05-07 00:23 45.46860 -73.73113 110 ft 21 kts 43°
2026-05-07 00:23 45.46968 -73.72970 112 ft 21 kts 43°
2026-05-07 00:23 45.47082 -73.72819 113 ft 23 kts 44°
2026-05-07 00:23 45.47195 -73.72672 113 ft 22 kts 42°
2026-05-07 00:24 45.47311 -73.72521 108 ft 24 kts 43°
2026-05-07 00:24 45.47431 -73.72359 109 ft 24 kts 43°
2026-05-07 00:24 45.47547 -73.72211 111 ft 21 kts 41°
2026-05-07 00:24 45.47650 -73.72074 113 ft 19 kts 43°
2026-05-07 00:25 45.47745 -73.71951 113 ft 18 kts 42°
2026-05-07 00:25 45.47812 -73.71843 110 ft 13 kts 79°
2026-05-07 00:25 45.47790 -73.71774 110 ft 0 kts 129°
2026-05-07 00:27 45.47774 -73.71747 109 ft 19 kts 131°
2026-05-07 00:27 45.47624 -73.71712 110 ft 24 kts 226°
2026-05-07 00:27 45.47419 -73.71979 109 ft 80 kts 223°
2026-05-07 00:28 45.46802 -73.72782 132 ft 154 kts 222°
2026-05-07 00:28 45.45919 -73.73859 902 ft 182 kts 220°
2026-05-07 00:28 45.45056 -73.75113 1904 ft 165 kts 246°
2026-05-07 00:28 45.45149 -73.76583 2517 ft 149 kts 302°
2026-05-07 00:29 45.45760 -73.77683 3135 ft 134 kts 306°
2026-05-07 00:29 45.46329 -73.78721 3738 ft 141 kts 306°
2026-05-07 00:30 45.48672 -73.83131 5901 ft 234 kts 306°
2026-05-07 00:30 45.49727 -73.85028 6588 ft 261 kts 314°
2026-05-07 00:30 45.51427 -73.86220 7232 ft 291 kts 348°
2026-05-07 00:30 45.53498 -73.85885 7880 ft 313 kts 18°
2026-05-07 00:31 45.55339 -73.84103 8541 ft 328 kts 40°
2026-05-07 00:31 45.56975 -73.81750 9226 ft 339 kts 45°
2026-05-07 00:31 45.58591 -73.79240 9893 ft 347 kts 45°
2026-05-07 00:31 45.60304 -73.76773 10504 ft 352 kts 41°
2026-05-07 00:32 45.62113 -73.74389 11122 ft 356 kts 40°
2026-05-07 00:32 45.63892 -73.71964 11740 ft 360 kts 42°
2026-05-07 00:32 45.65683 -73.69423 12378 ft 366 kts 42°
2026-05-07 00:32 45.67544 -73.66826 13049 ft 372 kts 41°
2026-05-07 00:33 45.69391 -73.64277 13702 ft 377 kts 41°
2026-05-07 00:33 45.71286 -73.61645 14294 ft 382 kts 41°
2026-05-07 00:33 45.73204 -73.58969 14901 ft 387 kts 41°
2026-05-07 00:33 45.75142 -73.56260 15518 ft 392 kts 41°
2026-05-07 00:34 45.77109 -73.53520 16154 ft 397 kts 42°
2026-05-07 00:34 45.79099 -73.50740 16805 ft 403 kts 42°
2026-05-07 00:34 45.81127 -73.47905 17462 ft 410 kts 42°
2026-05-07 00:34 45.83175 -73.45032 18132 ft 414 kts 42°
2026-05-07 00:35 45.85250 -73.42126 18713 ft 418 kts 43°
2026-05-07 00:35 45.87317 -73.39169 19309 ft 421 kts 45°
2026-05-07 00:35 45.89328 -73.36062 19924 ft 426 kts 46°
2026-05-07 00:35 45.91366 -73.32940 20545 ft 430 kts 45°
2026-05-07 00:36 45.93430 -73.29802 21175 ft 434 kts 46°
2026-05-07 00:36 45.95500 -73.26627 21838 ft 437 kts 46°
2026-05-07 00:36 45.97555 -73.23464 22489 ft 440 kts 46°
2026-05-07 00:36 45.99649 -73.20242 23159 ft 442 kts 46°
2026-05-07 00:37 46.01755 -73.17004 23773 ft 443 kts 46°
2026-05-07 00:37 46.03864 -73.13753 24358 ft 444 kts 46°
2026-05-07 00:37 46.05976 -73.10495 24918 ft 445 kts 47°
2026-05-07 00:37 46.08087 -73.07231 25530 ft 444 kts 47°
2026-05-07 00:38 46.10197 -73.03970 26138 ft 444 kts 47°
2026-05-07 00:38 46.12297 -73.00718 26787 ft 443 kts 47°
2026-05-07 00:38 46.14391 -72.97470 27427 ft 441 kts 47°
2026-05-07 00:38 46.16450 -72.94268 28077 ft 439 kts 48°
2026-05-07 00:39 46.18283 -72.90772 28728 ft 434 kts 60°
2026-05-07 00:39 46.19833 -72.87044 29420 ft 431 kts 62°
2026-05-07 00:39 46.21373 -72.83351 30091 ft 428 kts 62°
2026-05-07 00:39 46.22905 -72.79676 30695 ft 424 kts 62°
2026-05-07 00:40 46.24419 -72.76031 31310 ft 421 kts 62°
2026-05-07 00:40 46.25913 -72.72422 31939 ft 416 kts 62°
2026-05-07 00:40 46.27394 -72.68849 32598 ft 412 kts 62°
2026-05-07 00:40 46.28838 -72.65360 33240 ft 407 kts 62°
2026-05-07 00:41 46.30283 -72.61864 33898 ft 402 kts 62°
2026-05-07 00:41 46.31706 -72.58414 34459 ft 397 kts 61°
2026-05-07 00:41 46.33114 -72.54998 35029 ft 391 kts 60°
2026-05-07 00:41 46.34495 -72.51645 35612 ft 385 kts 60°
2026-05-07 00:42 46.35855 -72.48337 36180 ft 379 kts 59°
2026-05-07 00:42 46.37187 -72.45090 36789 ft 372 kts 58°
2026-05-07 00:42 46.38483 -72.41931 37412 ft 365 kts 58°
2026-05-07 00:42 46.39765 -72.38802 38046 ft 358 kts 57°
2026-05-07 00:43 46.41022 -72.35732 38662 ft 350 kts 57°
2026-05-07 00:43 46.42245 -72.32737 39190 ft 341 kts 57°
2026-05-07 00:43 46.43438 -72.29816 39709 ft 332 kts 57°
2026-05-07 00:43 46.44598 -72.26971 40244 ft 322 kts 57°
2026-05-07 00:44 46.45725 -72.24209 40777 ft 312 kts 58°
2026-05-07 00:44 46.46810 -72.21541 41310 ft 301 kts 58°
2026-05-07 00:44 46.47861 -72.18963 41704 ft 297 kts 58°
2026-05-07 00:44 46.48910 -72.16383 41781 ft 305 kts 58°
2026-05-07 00:45 46.50004 -72.13691 41915 ft 312 kts 58°
2026-05-07 00:45 46.51115 -72.10949 42060 ft 318 kts 58°
2026-05-07 00:45 46.52248 -72.08152 42209 ft 324 kts 58°
2026-05-07 00:45 46.53402 -72.05304 42351 ft 331 kts 59°
2026-05-07 00:46 46.54577 -72.02392 42494 ft 337 kts 59°
2026-05-07 00:46 46.55569 -71.99284 42631 ft 342 kts 69°
2026-05-07 00:46 46.56489 -71.96062 42775 ft 348 kts 68°
2026-05-07 00:46 46.57454 -71.92789 42911 ft 354 kts 68°
2026-05-07 00:47 46.58427 -71.89465 43053 ft 360 kts 68°
2026-05-07 00:47 46.59407 -71.86080 43182 ft 366 kts 68°
2026-05-07 00:47 46.60401 -71.82642 43324 ft 371 kts 68°
2026-05-07 00:47 46.61412 -71.79156 43451 ft 377 kts 68°
2026-05-07 00:48 46.62423 -71.75665 43581 ft 382 kts 68°
2026-05-07 00:48 46.63459 -71.72077 43711 ft 387 kts 68°
2026-05-07 00:48 46.64509 -71.68434 43841 ft 392 kts 68°
2026-05-07 00:48 46.65571 -71.64744 43965 ft 397 kts 68°
2026-05-07 00:49 46.66646 -71.61005 44099 ft 401 kts 68°
2026-05-07 00:49 46.67715 -71.57281 44227 ft 406 kts 69°
2026-05-07 00:49 46.68812 -71.53456 44353 ft 410 kts 69°
2026-05-07 00:49 46.69913 -71.49604 44478 ft 414 kts 69°
2026-05-07 00:50 46.71025 -71.45712 44633 ft 418 kts 69°
2026-05-07 00:50 46.72145 -71.41788 44714 ft 421 kts 69°
2026-05-07 00:50 46.74032 -71.35158 44849 ft 429 kts 69°
2026-05-07 00:51 46.76729 -71.25652 44854 ft 443 kts 69°
2026-05-07 00:51 46.78718 -71.18615 44853 ft 452 kts 69°
2026-05-07 00:52 46.81137 -71.10032 44857 ft 461 kts 69°
2026-05-07 00:52 46.83596 -71.01274 44846 ft 470 kts 69°
2026-05-07 00:53 46.86071 -70.92427 44848 ft 477 kts 69°
2026-05-07 00:53 46.88595 -70.83371 44835 ft 483 kts 69°
2026-05-07 00:54 46.91143 -70.74198 44847 ft 485 kts 69°
2026-05-07 00:54 46.92387 -70.69705 44827 ft 469 kts 69°
2026-05-07 00:54 46.93595 -70.65338 44817 ft 458 kts 69°
2026-05-07 00:55 46.95958 -70.56755 44824 ft 460 kts 69°
2026-05-07 00:55 46.98382 -70.47989 44832 ft 468 kts 66°
2026-05-07 00:56 46.99968 -70.43807 44833 ft 471 kts 55°
2026-05-07 00:56 47.01809 -70.39820 44834 ft 474 kts 55°
2026-05-07 00:56 47.05507 -70.31783 44806 ft 474 kts 55°
2026-05-07 00:57 47.09175 -70.23776 44810 ft 471 kts 55°
2026-05-07 00:57 47.12812 -70.15819 44807 ft 468 kts 55°
2026-05-07 00:58 47.16432 -70.07873 44809 ft 468 kts 55°
2026-05-07 00:58 47.20056 -69.99898 44819 ft 470 kts 55°
2026-05-07 00:59 47.23189 -69.91441 44825 ft 472 kts 67°
2026-05-07 00:59 47.24471 -69.86993 44824 ft 472 kts 67°
2026-05-07 01:00 47.27406 -69.78386 44861 ft 474 kts 61°
2026-05-07 01:00 47.30384 -69.69715 44790 ft 472 kts 65°
2026-05-07 01:01 47.33274 -69.61079 44807 ft 468 kts 63°
2026-05-07 01:01 47.36185 -69.52536 44806 ft 465 kts 64°
2026-05-07 01:02 47.39050 -69.43966 44802 ft 466 kts 63°
2026-05-07 01:02 47.41945 -69.35365 44828 ft 468 kts 64°
2026-05-07 01:03 47.44809 -69.26777 44823 ft 470 kts 64°
2026-05-07 01:03 47.47699 -69.18109 44821 ft 470 kts 64°
2026-05-07 01:04 47.50577 -69.09433 44813 ft 468 kts 64°
2026-05-07 01:04 47.53435 -69.00796 44808 ft 467 kts 64°
2026-05-07 01:05 47.56278 -68.92173 44828 ft 465 kts 64°
2026-05-07 01:05 47.59091 -68.83614 44824 ft 464 kts 64°
2026-05-07 01:06 47.61903 -68.75030 44829 ft 462 kts 64°
2026-05-07 01:06 47.64701 -68.66452 44825 ft 462 kts 65°
2026-05-07 01:07 47.67496 -68.57868 44988 ft 463 kts 64°
2026-05-07 01:07 47.70325 -68.49141 44481 ft 473 kts 65°
2026-05-07 01:07 47.71737 -68.44773 44056 ft 466 kts 65°
2026-05-07 01:08 47.73126 -68.40474 43631 ft 457 kts 65°
2026-05-07 01:08 47.74485 -68.36259 43197 ft 448 kts 65°
2026-05-07 01:08 47.75817 -68.32116 42778 ft 440 kts 65°
2026-05-07 01:08 47.77124 -68.28047 42367 ft 434 kts 65°
2026-05-07 01:09 47.78404 -68.24057 41977 ft 431 kts 66°
2026-05-07 01:09 47.79689 -68.20046 41594 ft 430 kts 66°
2026-05-07 01:09 47.80979 -68.16009 41224 ft 433 kts 66°
2026-05-07 01:09 47.82282 -68.11925 40866 ft 439 kts 66°
2026-05-07 01:10 47.83602 -68.07784 40430 ft 447 kts 66°
2026-05-07 01:10 47.84940 -68.03579 39984 ft 451 kts 66°
2026-05-07 01:10 47.86283 -67.99355 39524 ft 451 kts 66°
2026-05-07 01:10 47.87619 -67.95142 39081 ft 449 kts 67°
2026-05-07 01:11 47.88949 -67.90940 38634 ft 448 kts 67°
2026-05-07 01:11 47.90275 -67.86743 38124 ft 446 kts 67°
2026-05-07 01:11 47.91595 -67.82565 37561 ft 445 kts 68°
2026-05-07 01:11 47.92893 -67.78441 37047 ft 443 kts 68°
2026-05-07 01:12 47.94200 -67.74285 36523 ft 442 kts 68°
2026-05-07 01:12 47.95505 -67.70129 36024 ft 443 kts 69°
2026-05-07 01:12 47.96816 -67.65948 35531 ft 444 kts 69°
2026-05-07 01:12 47.98131 -67.61745 35069 ft 445 kts 69°
2026-05-07 01:13 47.99441 -67.57552 34592 ft 446 kts 70°
2026-05-07 01:13 48.00754 -67.53339 34124 ft 447 kts 70°
2026-05-07 01:13 48.02064 -67.49134 33632 ft 447 kts 71°
2026-05-07 01:13 48.03358 -67.44970 33098 ft 447 kts 70°
2026-05-07 01:14 48.04685 -67.40694 32564 ft 448 kts 70°
2026-05-07 01:14 48.05993 -67.36470 32043 ft 448 kts 70°
2026-05-07 01:14 48.07289 -67.32281 31538 ft 450 kts 70°
2026-05-07 01:14 48.08605 -67.28015 30987 ft 452 kts 70°
2026-05-07 01:15 48.09927 -67.23730 30502 ft 453 kts 70°
2026-05-07 01:15 48.11250 -67.19430 30019 ft 455 kts 70°
2026-05-07 01:15 48.12572 -67.15126 29487 ft 455 kts 70°
2026-05-07 01:15 48.13895 -67.10807 28934 ft 456 kts 70°
2026-05-07 01:16 48.15220 -67.06483 28387 ft 456 kts 69°
2026-05-07 01:16 48.16543 -67.02157 27852 ft 457 kts 69°
2026-05-07 01:16 48.17845 -66.97886 27337 ft 456 kts 69°
2026-05-07 01:16 48.19160 -66.93566 26820 ft 454 kts 69°
2026-05-07 01:17 48.20466 -66.89279 26311 ft 449 kts 69°
2026-05-07 01:17 48.21756 -66.85022 25808 ft 445 kts 69°
2026-05-07 01:17 48.23029 -66.80815 25315 ft 440 kts 69°
2026-05-07 01:17 48.24278 -66.76694 24823 ft 428 kts 69°
2026-05-07 01:18 48.25491 -66.72681 24349 ft 418 kts 69°
2026-05-07 01:18 48.26676 -66.68745 23875 ft 410 kts 69°
2026-05-07 01:18 48.27844 -66.64856 23383 ft 406 kts 69°
2026-05-07 01:18 48.29004 -66.60994 22837 ft 404 kts 68°
2026-05-07 01:19 48.30155 -66.57158 22296 ft 401 kts 69°
2026-05-07 01:19 48.31300 -66.53340 21771 ft 399 kts 68°
2026-05-07 01:19 48.32419 -66.49598 21265 ft 397 kts 69°
2026-05-07 01:19 48.33549 -66.45816 20755 ft 395 kts 69°
2026-05-07 01:20 48.34666 -66.42064 20257 ft 391 kts 69°
2026-05-07 01:20 48.35775 -66.38340 19760 ft 388 kts 69°
2026-05-07 01:20 48.36874 -66.34647 19272 ft 385 kts 69°
2026-05-07 01:20 48.37963 -66.30978 18798 ft 383 kts 69°
2026-05-07 01:21 48.39043 -66.27334 18316 ft 380 kts 69°
2026-05-07 01:21 48.40113 -66.23716 17814 ft 377 kts 69°
2026-05-07 01:21 48.41173 -66.20127 17283 ft 373 kts 69°
2026-05-07 01:21 48.42225 -66.16564 16762 ft 370 kts 69°
2026-05-07 01:22 48.43264 -66.13044 16254 ft 365 kts 69°
2026-05-07 01:22 48.44287 -66.09562 15744 ft 362 kts 69°
2026-05-07 01:22 48.45300 -66.06111 15252 ft 358 kts 69°
2026-05-07 01:22 48.46290 -66.02741 14771 ft 354 kts 69°
2026-05-07 01:23 48.47277 -65.99365 14266 ft 351 kts 69°
2026-05-07 01:23 48.48260 -65.96011 13795 ft 348 kts 69°
2026-05-07 01:23 48.49233 -65.92682 13292 ft 345 kts 69°
2026-05-07 01:23 48.50192 -65.89391 12764 ft 341 kts 69°
2026-05-07 01:24 48.51146 -65.86124 12241 ft 339 kts 69°
2026-05-07 01:24 48.52087 -65.82888 11732 ft 335 kts 69°
2026-05-07 01:24 48.53018 -65.79680 11228 ft 331 kts 69°
2026-05-07 01:24 48.53938 -65.76508 10730 ft 327 kts 69°
2026-05-07 01:25 48.54846 -65.73377 10247 ft 324 kts 69°
2026-05-07 01:25 48.55734 -65.70317 9776 ft 320 kts 69°
2026-05-07 01:25 48.56621 -65.67244 9254 ft 317 kts 69°
2026-05-07 01:25 48.57500 -65.64196 8727 ft 315 kts 69°
2026-05-07 01:26 48.58373 -65.61174 8204 ft 312 kts 69°
2026-05-07 01:26 48.59232 -65.58190 7708 ft 309 kts 69°
2026-05-07 01:26 48.60084 -65.55227 7208 ft 306 kts 69°
2026-05-07 01:26 48.60926 -65.52296 6719 ft 302 kts 69°
2026-05-07 01:27 48.61756 -65.49405 6235 ft 299 kts 69°
2026-05-07 01:27 48.62580 -65.46537 5715 ft 295 kts 69°
2026-05-07 01:27 48.63385 -65.43717 5202 ft 288 kts 69°
2026-05-07 01:27 48.64171 -65.40967 4714 ft 281 kts 69°
2026-05-07 01:28 48.64937 -65.38284 4200 ft 274 kts 69°
2026-05-07 01:28 48.65688 -65.35662 3676 ft 271 kts 69°
2026-05-07 01:28 48.66430 -65.33051 3229 ft 267 kts 69°
2026-05-07 01:28 48.67153 -65.30528 3102 ft 256 kts 69°
2026-05-07 01:29 48.67846 -65.28078 3262 ft 261 kts 69°
2026-05-07 01:29 48.68546 -65.25611 3464 ft 244 kts 69°
2026-05-07 01:29 48.69186 -65.23369 3582 ft 230 kts 69°
2026-05-07 01:29 48.69837 -65.21051 3584 ft 251 kts 70°
2026-05-07 01:30 48.70545 -65.18538 3601 ft 265 kts 69°
2026-05-07 01:30 48.71281 -65.15961 3612 ft 268 kts 69°
2026-05-07 01:30 48.72020 -65.13338 3599 ft 271 kts 70°
2026-05-07 01:30 48.72767 -65.10700 3597 ft 273 kts 69°
2026-05-07 01:31 48.73504 -65.08089 3598 ft 271 kts 70°
2026-05-07 01:31 48.74239 -65.05471 3634 ft 268 kts 69°
2026-05-07 01:31 48.74977 -65.02854 3595 ft 270 kts 70°
2026-05-07 01:31 48.75707 -65.00262 3599 ft 270 kts 69°
2026-05-07 01:32 48.76443 -64.97639 3593 ft 271 kts 69°
2026-05-07 01:32 48.77179 -64.95005 3542 ft 271 kts 69°
2026-05-07 01:32 48.77920 -64.92370 3502 ft 271 kts 69°
2026-05-07 01:32 48.78633 -64.89738 3432 ft 267 kts 73°
2026-05-07 01:33 48.78815 -64.86963 3336 ft 264 kts 96°
2026-05-07 01:33 48.78559 -64.84242 3279 ft 255 kts 101°
2026-05-07 01:33 48.78287 -64.81674 3210 ft 236 kts 101°
2026-05-07 01:33 48.78048 -64.79345 3144 ft 213 kts 101°
2026-05-07 01:34 48.77832 -64.77250 3066 ft 195 kts 104°
2026-05-07 01:34 48.77627 -64.75251 2996 ft 190 kts 104°
2026-05-07 01:34 48.77419 -64.73262 3093 ft 194 kts 107°
2026-05-07 01:34 48.77217 -64.71277 3047 ft 188 kts 106°
2026-05-07 01:35 48.77011 -64.69299 2894 ft 193 kts 107°
2026-05-07 01:35 48.76792 -64.67250 2653 ft 197 kts 104°
2026-05-07 01:35 48.76587 -64.65226 2392 ft 192 kts 104°
2026-05-07 01:35 48.76447 -64.63246 2144 ft 184 kts 93°
2026-05-07 01:36 48.76597 -64.61397 1873 ft 169 kts 87°
2026-05-07 01:36 48.76710 -64.59672 1625 ft 160 kts 87°
2026-05-07 01:36 48.76783 -64.58575 1474 ft 155 kts 86°
2026-05-07 01:36 48.76893 -64.56996 1308 ft 145 kts 86°
2026-05-07 01:37 48.77027 -64.55083 1049 ft 124 kts 86°
2026-05-07 01:37 48.77109 -64.53877 809 ft 111 kts 85°
2026-05-07 01:37 48.77187 -64.52738 611 ft 106 kts 85°
2026-05-07 01:37 48.77266 -64.51584 538 ft 113 kts 85°
2026-05-07 01:38 48.77321 -64.50802 439 ft 112 kts 85°
2026-05-07 01:38 48.77399 -64.49645 265 ft 109 kts 85°
2026-05-07 01:38 48.77476 -64.48518 117 ft 105 kts 84°
2026-05-07 01:38 48.77532 -64.47809 105 ft 29 kts 83°
2026-05-07 01:39 48.77561 -64.47575 102 ft 12 kts 38°
2026-05-07 01:39 48.77640 -64.47592 100 ft 13 kts 348°
2026-05-07 01:39 48.77720 -64.47618 100 ft 5 kts 342°
2026-05-07 01:39 48.77721 -64.47618 100 ft 0 kts 342°